Terminal Aerodrome Forecast
Issued by NWS Greer, SC

Home | Current Version | Previous Version | Text Only | Print | Product List | Glossary On
Versions: 1 2 3 4 5 6 7 8 9 10 11 12 13 14 15 16 17 18 19 20 21 22 23 24 25 26 27 28 29 30 31 32 33 34 35 36 37 38 39 40 41 42 43 44 45 46 47 48 49 50
000
FTUS42 KGSP 051730
TAFCLT
TAF
KCLT 051730Z 0518/0618 21010KT P6SM VCSH SCT040 BKN120
      TEMPO 0519/0523 -SHRA BKN040
     FM060100 20006KT P6SM SCT050 BKN150
     FM060900 23005KT P6SM FEW020 SCT150
     FM061400 23007KT P6SM SCT040=

USA.gov is the U.S. government's official web portal to all federal, state and local government web resources and services.